This demonstration page uses our WeatherBlox Daily Observations layout. Learn more.

Hourly Observations for November 16, 2015

Temp ( °F °C ) Dew Point ( °F °C ) Humidity (%) Winds ( mph kmh ) Pressure ( in mb ) Visibility ( mi km ) Precip ( " mm )
12:15 am 00:15 Cloudy 54 12 50 10 88 88 S 24 39 29.65 1004 10 16.09344 0 0
12:35 am 00:35 Cloudy with Light Drizzle 54 12 52 11 94 94 S 21 33 29.65 1004 10 16.09344 0 0
12:55 am 00:55 Cloudy with Light Rain 54 12 52 11 94 94 S 22 35 29.65 1004 10 16.09344 0 0
1:15 am 01:15 Cloudy with Light Rain 54 12 52 11 94 94 S 24 39 29.65 1004 5 8.04672 0.01 0.254
1:35 am 01:35 Cloudy with Light Rain 54 12 52 11 94 94 S 20 31 29.65 1004 2.5 4.02336 0.05 1.27
1:55 am 01:55 Cloudy with Rain 54 12 52 11 94 94 S 18 30 29.65 1004 3 4.828032 0.06 1.524
2:15 am 02:15 Cloudy with Light Rain 54 12 52 11 94 94 SSE 14 22 29.65 1004 5 8.04672 0.05 1.27
2:35 am 02:35 Cloudy with Mist and Fog 54 12 52 11 94 94 SSE 13 20 29.65 1004 4 6.437376 0.05 1.27
2:55 am 02:55 Cloudy with Mist and Fog 54 12 52 11 94 94 SSE 14 22 29.62 1003 2.5 4.02336 0.05 1.27
3:15 am 03:15 Cloudy with Mist and Fog 52 11 52 11 100 100 SSE 17 28 29.62 1003 3 4.828032 0.01 0.254
3:35 am 03:35 Cloudy with Mist and Fog 54 12 52 11 94 94 SSE 18 30 29.62 1003 2 3.218688 0.01 0.254
3:55 am 03:55 Cloudy with Mist and Fog 52 11 50 10 94 94 SSE 16 26 29.62 1003 1 1.609344 0.01 0.254
4:15 am 04:15 Cloudy with Mist and Fog 52 11 50 10 94 94 SSE 20 31 29.62 1003 0.75 1.207008 0 0
4:35 am 04:35 Cloudy with Mist and Fog 52 11 50 10 94 94 SSE 14 22 29.62 1003 0.75 1.207008 0 0
4:55 am 04:55 Cloudy with Fog 52 11 50 10 94 94 SSE 15 24 29.59 1002 0.5 0.804672 0 0
5:15 am 05:15 Cloudy with Fog 52 11 50 10 94 94 S 16 26 29.59 1002 0.5 0.804672 0 0
5:35 am 05:35 Cloudy with Fog 52 11 50 10 94 94 SSE 15 24 29.59 1002 0.5 0.804672 0 0
5:55 am 05:55 Cloudy with Fog 52 11 50 10 94 94 SSE 16 26 29.59 1002 0.5 0.804672 0 0
6:15 am 06:15 Cloudy with Mist and Fog 52 11 52 11 100 100 SSE 14 22 29.59 1002 0.75 1.207008 0 0
6:35 am 06:35 Cloudy with Mist and Fog 52 11 52 11 100 100 SSE 15 24 29.59 1002 0.75 1.207008 0 0
6:55 am 06:55 Cloudy with Mist and Fog 52 11 52 11 100 100 SSE 13 20 29.59 1002 0.75 1.207008 0 0
7:15 am 07:15 Cloudy with Mist and Fog 52 11 52 11 100 100 SSE 13 20 29.59 1002 1.25 2.01168 0 0
7:35 am 07:35 Cloudy with Mist and Fog 54 12 52 11 94 94 SSE 14 22 29.59 1002 3 4.828032 0 0
7:55 am 07:55 Cloudy with Mist and Fog 54 12 52 11 94 94 SSE 12 19 29.59 1002 4 6.437376 0 0
8:15 am 08:15 Cloudy with Mist and Fog 54 12 52 11 94 94 SSE 15 24 29.59 1002 5 8.04672 0 0
8:35 am 08:35 Cloudy with Mist and Fog 54 12 54 12 100 100 SSE 17 28 29.59 1002 5 8.04672 0 0
8:55 am 08:55 Cloudy 54 12 54 12 100 100 SSE 14 22 29.59 1002 7 11.265408 0 0
9:15 am 09:15 Cloudy 55 13 54 12 94 94 S 16 26 29.56 1001 10 16.09344 0 0
9:35 am 09:35 Cloudy 55 13 54 12 94 94 S 16 26 29.53 1000 10 16.09344 0 0
9:55 am 09:55 Cloudy 55 13 52 11 88 88 S 16 26 29.53 1000 10 16.09344 0 0
10:15 am 10:15 Cloudy 57 14 52 11 82 82 S 15 24 29.53 1000 10 16.09344 0 0
10:35 am 10:35 Cloudy 57 14 52 11 82 82 S 18 30 29.53 1000 10 16.09344 0 0
10:55 am 10:55 Mostly Cloudy 57 14 52 11 82 82 S 17 28 29.53 1000 10 16.09344 0 0
11:15 am 11:15 Mostly Cloudy 59 15 52 11 77 77 S 15 24 29.53 1000 10 16.09344 0 0
11:35 am 11:35 Partly Cloudy 59 15 52 11 77 77 S 17 28 29.47 998 10 16.09344 0 0
11:55 am 11:55 Partly Cloudy 61 16 52 11 72 72 SSE 17 28 29.47 998 10 16.09344 0 0
12:15 pm 12:15 Sunny 63 17 52 11 68 68 S 18 30 29.47 998 10 16.09344 0 0
12:35 pm 12:35 Sunny 63 17 52 11 68 68 S 18 30 29.44 997 10 16.09344 0 0
12:55 pm 12:55 Sunny 66 19 50 10 56 56 S 21 33 29.41 996 10 16.09344 0 0
1:15 pm 13:15 Sunny 66 19 50 10 56 56 S 21 33 29.41 996 10 16.09344 0 0
1:35 pm 13:35 Sunny 66 19 52 11 60 60 S 20 31 29.38 995 10 16.09344 0 0
1:55 pm 13:55 Partly Cloudy 66 19 52 11 60 60 S 21 33 29.38 995 10 16.09344 0 0
2:15 pm 14:15 Sunny 66 19 52 11 60 60 S 18 30 29.38 995 10 16.09344 0 0
2:35 pm 14:35 Partly Cloudy 66 19 52 11 60 60 SSE 21 33 29.38 995 10 16.09344 0 0
2:55 pm 14:55 Partly Cloudy 66 19 54 12 64 64 SSE 18 30 29.38 995 10 16.09344 0 0
3:15 pm 15:15 Partly Cloudy 68 20 54 12 60 60 SSE 16 26 29.35 994 10 16.09344 0 0
3:35 pm 15:35 Partly Cloudy 68 20 54 12 60 60 S 21 33 29.35 994 10 16.09344 0 0
3:55 pm 15:55 Sunny 68 20 52 11 56 56 S 20 31 29.35 994 10 16.09344 0 0
4:15 pm 16:15 Sunny 68 20 52 11 56 56 SSE 16 26 29.35 994 10 16.09344 0 0
4:35 pm 16:35 Sunny 64 18 52 11 64 64 SSE 12 19 29.35 994 10 16.09344 0 0
4:55 pm 16:55 Partly Cloudy 64 18 52 11 64 64 SE 15 24 29.35 994 10 16.09344 0 0
5:15 pm 17:15 Mostly Cloudy 64 18 55 13 73 73 SE 15 24 29.35 994 10 16.09344 0 0
5:35 pm 17:35 Partly Cloudy 63 17 55 13 77 77 SE 20 31 29.38 995 10 16.09344 0 0
5:55 pm 17:55 Partly Cloudy 63 17 55 13 77 77 SE 20 31 29.38 995 10 16.09344 0 0
6:15 pm 18:15 Mostly Cloudy 63 17 55 13 77 77 SE 18 30 29.38 995 10 16.09344 0 0
6:35 pm 18:35 Partly Cloudy 63 17 55 13 77 77 SSE 13 20 29.38 995 10 16.09344 0 0
6:55 pm 18:55 Partly Cloudy 61 16 55 13 83 83 SE 15 24 29.38 995 10 16.09344 0 0
7:15 pm 19:15 Mostly Cloudy 63 17 57 14 83 83 SSE 21 33 29.38 995 10 16.09344 0 0
7:35 pm 19:35 Cloudy 61 16 57 14 88 88 SSE 15 24 29.38 995 10 16.09344 0 0
7:55 pm 19:55 Cloudy with Light Thunderstorms 61 16 57 14 88 88 SE 18 30 29.38 995 10 16.09344 0 0
8:15 pm 20:15 Windy with Storms Likely 61 16 57 14 88 88 SSE 20 31 29.38 995 10 16.09344 0.01 0.254
8:35 pm 20:35 Windy with Storms Likely 59 15 57 14 94 94 SSE 20 31 29.38 995 10 16.09344 0.01 0.254
8:55 pm 20:55 Cloudy with Heavy Thunderstorms 54 12 50 10 88 88 S 10 17 29.44 997 1.75 2.816352 0.3 7.62
9:15 pm 21:15 Cloudy with Light Rain 54 12 50 10 88 88 Calm 29.44 997 10 16.09344 0.07 1.778
9:35 pm 21:35 Cloudy with Thunderstorms 52 11 50 10 94 94 SSE 10 17 29.5 999 7 11.265408 0.13 3.302
9:55 pm 21:55 Cloudy with Thunderstorms 54 12 52 11 94 94 SSW 10 17 29.53 1000 4 6.437376 0.31 7.874
10:15 pm 22:15 Cloudy with Thunderstorms 54 12 52 11 94 94 SSW 6 9 29.53 1000 7 11.265408 0.06 1.524
10:35 pm 22:35 Cloudy 54 12 52 11 94 94 NNW 5 7 29.47 998 7 11.265408 0.11 2.794
10:55 pm 22:55 Mostly Cloudy 52 11 50 10 94 94 N 3 6 29.44 997 10 16.09344 0.11 2.794
11:15 pm 23:15 Cloudy with Rain 52 11 50 10 94 94 SE 5 7 29.5 999 10 16.09344 0 0
11:35 pm 23:35 Cloudy with Rain 54 12 50 10 88 88 SE 7 11 29.47 998 10 16.09344 0.02 0.508
11:55 pm 23:55 Cloudy with Rain 54 12 50 10 88 88 SSE 8 13 29.5 999 7 11.265408 0.08 2.032

Powered by AerisWeather